Find Starlink 6160

NORAD ID: 56382 Int'l Des: 2023-061 Owner: SPXS Country: US Constellation: starlink operational
LEOCIRCULAR

現在のビュー

3D地球を読み込み中...

About Starlink 6160

Starlink 6160 (NORAD 56382) is a starlink constellation satellite (v1.5) launched May 4, 2023 by SPXS of US. It operates in LEO, CIRCULAR orbit with a mass of 305.00 kg.

Starlink 6160について

説明を読み込み中...

次回通過

Passes for default location (London). Set your location on the main map for personalized predictions.

高度履歴

Loading altitude history...

軌道要素

1 56382U 23061J 26171.45575691 -.00000102 00000-0 58229-5 0 9990
2 56382 43.0039 337.7648 0001472 262.4715 97.5969 15.27578580172467
Epoch: Jun 20, 2026 • Age: 25 hours

現在のステータス

高度 486.1 km
速度 7.62 km/s
衛星直下点 -16.86°S, 135.73°W
打ち上げ日 May 4, 2023
運用期間 3.1 years
タイプ internet

技術仕様

分類 Payload
質量 305.00 kg
乾燥質量 290.00 kg
総質量 305.00 kg
長さ 0.20 m
直径 2.80 m
スパン 9.00 m
形状 Box + pan
製造者 SPXS
バスタイプ Starlink
フェーズステータス In Orbit
所有者/国 SPXS/US

Most Searched